Find Starlink 36917

NORAD ID: 68059 Int'l Des: 2026-041 Owner: SPXS Country: US Constellation: starlink operational
LEOCIRCULAR

Live-Position

3D-Globus wird geladen...

Über Starlink 36917

Beschreibung wird geladen...

Nächste Überflüge

Passes for default location (London). Set your location on the main map for personalized predictions.

Höhenverlauf

Loading altitude history...

Zweizeiliger Elementsatz

1 68059U 26041V 26106.91668981 -.01890347 00000-0 -43366-1 0 9991
2 68059 53.1611 232.4231 0001300 72.6545 135.5751 15.45387191 5799
Epoch: 16. Apr. 2026 • Age: 13 hours

Aktueller Status

Höhe 452.3 km
Geschwindigkeit 7.64 km/s
Subsatellitenpunkt -44.43°S, 92.79°E
Startdatum 2. März 2026
Alter 0.1 years
Typ internet

Technische Details

Klassifizierung Payload
Masse 575.00 kg
Trockenmasse 530.00 kg
Gesamtmasse 575.00 kg
Länge 0.30 m
Durchmesser 4.10 m
Spannweite 29.00 m
Form Box + pan
Hersteller SPXS
Bus-Typ Starlink V2MO
Phasenstatus In Orbit
Besitzer/Staat SPXS/US

Most Searched